Location: Unspecified
(0.0000°N, 0.0000°E)
Time: 07:49:18
(UTC+00:00)

X-37B - Pass Details

Date: 24 November 2020
Orbit: 384 x 389 km, 45.0° (Epoch: 12 November)

Event Time Altitude Azimuth Distance (km) Brightness Sun altitude
Exits shadow 04:35:42 47° 275° (W) 519 0.7 -16.6°
Maximum altitude 04:36:18 58° 228° (SW) 454 0.7 -16.4°
Drops below altitude 10° 04:39:25 10° 148° (SSE) 1,407 4.2 -15.7°
Sets 04:41:31 0° 143° (SE) 2,264 5.5 -15.2°
